sat.trackr.live / text

‹ back to catalog

STARLINK-35890

NORAD 66835 · 2025-280Q

PAYLOAD ACTIVE UNKNOWN

§ Identity

Operator
Country
US
Launch date
2025-12-02
Launch site
AFWTR
Launch vehicle
Mass (kg)
RCS (m²)

Purposes: comms

External: N2YO · Heavens-Above · Gunter

§ Orbital elements

Epoch: 2026-05-25T02:48:31.013568Z

Period
96.11 min
Inclination
70.0009°
Eccentricity
0.0003731
Mean motion
14.98355375 rev/d
Perigee alt
569.4 km
Apogee alt
574.6 km
Semi-major
6,950.1 km
B*
7.4609e-4
RAAN
141.7693°
Arg perigee
268.7945°
Mean anomaly
91.2786°
Rev number
2,752

§ Raw data

STARLINK-358901 66835U 25280Q   26145.11702562  .00008827  00000+0  74609-3 0  99902 66835  70.0009 141.7693 0003731 268.7945  91.2786 14.98355375 27521

JSON: /api/v1/satellites/66835 · /tle

For live sub-satellite position, see the globe view (requires WebGL).

§ Visibility from observer

Set your observer location to see the next 7 days of passes ≥ 10°. The values pass through the URL so the page stays shareable.

No JS? Fill the form by hand. The geolocation button needs JavaScript.